FW1448 Weather Reports


Display with metric or nautical units.
time (UTC)temp
F
wind
direction
speed
MPH
gust
MPH
rain 1hr
in
rain 24hr
in
rain mn
in
humidity
%
barometer
mb
20200706131808 64 59 2.0 5.0 0.00 0.00 0.00 70 1016.1
20200706131308 64 71 1.0 3.0 0.00 0.00 0.00 69 1016.1
20200706130809 65 82 1.0 3.0 0.00 0.00 0.00 70 1016.1
20200706130300 64 50 2.0 3.0 0.00 0.00 0.00 69 1016.0
20200706125752 64 98 1.0 3.0 0.00 0.00 0.00 69 1016.2
20200706125254 65 342 0.0 2.0 0.00 0.00 0.00 66 1016.0
20200706124739 64 333 1.0 3.0 0.00 0.00 0.00 68 1015.8
20200706124158 63 303 0.0 3.0 0.00 0.00 0.00 69 1015.8
20200706123659 63 295 0.0 0.0 0.00 0.00 0.00 70 1015.7
20200706123148 63 293 0.0 0.0 0.00 0.00 0.00 71 1015.5
20200706122643 62 268 0.0 1.0 0.00 0.00 0.00 71 1015.4
20200706122134 62 269 1.0 3.0 0.00 0.00 0.00 71 1015.2
20200706121639 62 231 2.0 4.0 0.00 0.00 0.00 72 1015.2
20200706121128 61 254 2.0 4.0 0.00 0.00 0.00 72 1015.0
20200706120628 61 214 1.0 4.0 0.00 0.00 0.00 73 1014.7
20200706120127 61 216 0.0 3.0 0.00 0.00 0.00 74 1014.8
20200706115638 61 143 0.0 0.0 0.00 0.00 0.00 75 1014.7
20200706115125 61 143 0.0 0.0 0.00 0.00 0.00 75 1014.6
20200706114621 61 127 0.0 0.0 0.00 0.00 0.00 74 1014.6
20200706114128 61 129 0.0 0.0 0.00 0.00 0.00 73 1014.6
20200706113548 61 314 0.0 0.0 0.00 0.00 0.00 72 1014.5
20200706113026 61 314 0.0 0.0 0.00 0.00 0.00 72 1014.4
20200706112516 61 314 0.0 0.0 0.00 0.00 0.00 72 1014.4
20200706111953 61 314 0.0 0.0 0.00 0.00 0.00 72 1014.5
20200706111451 61 314 0.0 0.0 0.00 0.00 0.00 72 1014.4
20200706110936 61 314 0.0 0.0 0.00 0.00 0.00 72 1014.3
20200706110434 61 311 0.0 2.0 0.00 0.00 0.00 72 1014.3
20200706105932 61 311 1.0 2.0 0.00 0.00 0.00 72 1014.3
20200706105431 61 319 1.0 3.0 0.00 0.00 0.00 72 1014.3
20200706104929 61 338 0.0 3.0 0.00 0.00 0.00 72 1014.3
20200706104428 61 340 0.0 0.0 0.00 0.00 0.00 72 1014.3
20200706103931 61 307 0.0 0.0 0.00 0.00 0.00 72 1014.2
20200706103429 61 319 0.0 0.0 0.00 0.00 0.00 73 1014.3
20200706102930 61 341 0.0 0.0 0.00 0.00 0.00 73 1014.2
20200706102419 61 350 0.0 0.0 0.00 0.00 0.00 73 1014.0
20200706101915 61 9 0.0 0.0 0.00 0.00 0.00 74 1014.2
20200706101406 61 49 0.0 0.0 0.00 0.00 0.00 74 1014.2
20200706100851 61 49 0.0 0.0 0.00 0.00 0.00 73 1014.2
20200706100344 61 14 0.0 0.0 0.00 0.00 0.00 73 1014.2
20200706095837 61 319 0.0 0.0 0.00 0.00 0.00 74 1013.9
20200706095306 61 319 0.0 0.0 0.00 0.00 0.00 74 1013.9
20200706094804 61 5 0.0 0.0 0.00 0.00 0.00 74 1014.0
20200706094237 61 3 0.0 0.0 0.00 0.00 0.00 74 1014.0
20200706093737 61 50 0.0 0.0 0.00 0.00 0.00 74 1014.0
20200706093236 61 61 0.0 0.0 0.00 0.00 0.00 74 1014.0
20200706092735 61 78 0.0 0.0 0.00 0.00 0.00 74 1014.0
20200706092232 62 84 0.0 0.0 0.00 0.00 0.00 74 1014.0
20200706091732 62 84 0.0 0.0 0.00 0.00 0.00 74 1014.0
20200706091228 62 103 0.0 0.0 0.00 0.00 0.00 74 1014.3
20200706090731 62 65 0.0 0.0 0.00 0.00 0.00 74 1014.3
20200706090205 62 65 0.0 0.0 0.00 0.00 0.00 74 1014.3
20200706085705 62 65 0.0 0.0 0.00 0.00 0.00 73 1014.2
20200706085208 62 123 0.0 2.0 0.00 0.00 0.00 73 1014.3
20200706084643 63 123 0.0 2.0 0.00 0.00 0.00 72 1014.4
20200706084133 63 127 0.0 1.0 0.00 0.00 0.00 72 1014.5
20200706083632 63 98 0.0 1.0 0.00 0.00 0.00 71 1014.5
20200706083133 63 141 0.0 1.0 0.00 0.00 0.00 71 1014.5
20200706082633 63 88 0.0 1.0 0.00 0.00 0.00 71 1014.5
20200706082134 63 105 1.0 2.0 0.00 0.00 0.00 71 1014.6
20200706081627 63 359 1.0 3.0 0.00 0.00 0.00 71 1014.5
20200706081125 63 67 1.0 3.0 0.00 0.00 0.00 70 1014.4
20200706080611 64 58 1.0 4.0 0.00 0.00 0.00 70 1014.6
20200706080058 64 90 3.0 7.0 0.00 0.00 0.00 70 1014.6
20200706075559 64 57 4.0 7.0 0.00 0.00 0.00 70 1014.6
20200706075055 65 39 4.0 6.0 0.00 0.00 0.00 69 1014.7
20200706074552 65 31 4.0 6.0 0.00 0.00 0.00 69 1014.6
20200706074052 65 53 3.0 5.0 0.00 0.00 0.00 69 1014.5
20200706073551 66 55 2.0 4.0 0.00 0.00 0.00 69 1014.6
20200706073051 66 44 2.0 4.0 0.00 0.00 0.00 68 1014.7
20200706072532 68 47 1.0 3.0 0.00 0.00 0.00 66 1015.2
20200706072055 69 77 0.0 0.0 0.00 0.00 0.00 62 1015.5
20200706071532 69 37 0.0 0.0 0.00 0.00 0.00 58 1015.7
20200706071034 69 37 0.0 0.0 0.00 0.00 0.00 57 1015.7
20200706070542 69 39 0.0 0.0 0.00 0.00 0.00 56 1015.9
20200706070036 70 40 0.0 0.0 0.00 0.00 0.00 55 1016.2
20200706065533 71 349 0.0 0.0 0.00 0.00 0.00 54 1016.5
20200706065033 71 20 0.0 0.0 0.00 0.00 0.00 54 1016.6
20200706064534 71 14 0.0 0.0 0.00 0.00 0.00 54 1016.7
20200706064051 71 13 0.0 0.0 0.00 0.00 0.00 53 1016.8
20200706063548 71 117 0.0 0.0 0.00 0.00 0.00 53 1016.8
20200706063031 71 117 0.0 1.0 0.00 0.00 0.00 53 1017.0
20200706062533 72 117 0.0 1.0 0.00 0.00 0.00 51 1017.1
20200706062015 73 221 0.0 1.0 0.00 0.00 0.00 50 1017.5
20200706061506 73 221 0.0 3.0 0.00 0.00 0.00 49 1017.7
20200706060944 73 203 1.0 3.0 0.00 0.00 0.00 49 1018.0
20200706060445 73 208 2.0 3.0 0.00 0.00 0.00 49 1018.0
20200706055936 73 141 2.0 3.0 0.00 0.00 0.00 49 1018.0
20200706055433 73 225 0.0 3.0 0.00 0.00 0.00 49 1018.2
20200706054935 74 240 0.0 1.0 0.00 0.00 0.00 49 1018.4
20200706054432 74 171 1.0 2.0 0.00 0.00 0.00 49 1018.2
20200706053932 74 142 1.0 3.0 0.00 0.00 0.00 49 1018.2
20200706053421 74 166 1.0 3.0 0.00 0.00 0.00 49 1018.3
20200706052921 74 122 1.0 5.0 0.00 0.00 0.00 49 1018.3
20200706052413 74 115 2.0 5.0 0.00 0.00 0.00 49 1018.2
20200706051903 74 64 1.0 3.0 0.00 0.00 0.00 48 1018.4
20200706051357 75 117 2.0 4.0 0.00 0.00 0.00 47 1018.5
20200706050849 75 118 3.0 7.0 0.00 0.00 0.00 46 1018.5
20200706050350 75 193 4.0 8.0 0.00 0.00 0.00 46 1018.9
20200706045846 75 156 4.0 8.0 0.00 0.00 0.00 46 1019.0
20200706045346 75 142 3.0 7.0 0.00 0.00 0.00 45 1018.9
20200706044848 76 118 4.0 7.0 0.00 0.00 0.00 45 1018.9
20200706044344 76 132 3.0 6.0 0.00 0.00 0.00 45 1018.6
20200706043845 76 148 2.0 4.0 0.00 0.00 0.00 46 1019.2
20200706043341 76 248 2.0 5.0 0.00 0.00 0.00 45 1019.6
20200706042838 76 292 4.0 9.0 0.00 0.00 0.00 45 1019.6
20200706042337 75 219 5.0 12.0 0.00 0.00 0.00 45 1019.2
20200706041838 75 192 6.0 12.0 0.00 0.00 0.00 45 1019.1
20200706041336 76 162 5.0 12.0 0.00 0.00 0.00 45 1019.2
20200706040837 76 145 4.0 8.0 0.00 0.00 0.00 45 1019.6
20200706040337 75 205 5.0 8.0 0.00 0.00 0.00 45 1019.9
20200706035836 75 220 5.0 9.0 0.00 0.00 0.00 47 1019.9
20200706035337 75 223 5.0 9.0 0.00 0.00 0.00 48 1019.6
20200706034836 75 227 4.0 8.0 0.00 0.00 0.00 48 1019.3
20200706034336 75 189 4.0 7.0 0.00 0.00 0.00 49 1019.2
20200706033835 75 216 3.0 7.0 0.00 0.00 0.00 49 1019.0
20200706033335 75 194 3.0 6.0 0.00 0.00 0.00 48 1019.1
20200706032835 75 104 3.0 6.0 0.00 0.00 0.00 47 1019.0
20200706032335 76 91 2.0 5.0 0.00 0.00 0.00 47 1019.3
20200706031835 77 129 1.0 5.0 0.00 0.00 0.00 44 1019.9
20200706031337 77 90 1.0 5.0 0.00 0.00 0.00 42 1019.7
20200706030835 77 307 1.0 5.0 0.00 0.00 0.00 42 1019.3
20200706030334 76 34 0.0 2.0 0.00 0.00 0.00 43 1019.2
20200706025835 76 83 1.0 4.0 0.00 0.00 0.00 44 1019.0
20200706025324 76 106 2.0 4.0 0.00 0.00 0.00 44 1018.6
20200706024826 76 90 2.0 6.0 0.00 0.00 0.00 45 1018.6
20200706024312 77 75 2.0 6.0 0.00 0.00 0.00 44 1018.5
20200706023811 77 115 2.0 4.0 0.00 0.00 0.00 44 1018.6
20200706023310 77 86 2.0 6.0 0.00 0.00 0.00 43 1018.8
20200706022808 78 93 3.0 8.0 0.00 0.00 0.00 43 1018.6
20200706022310 78 99 4.0 10.0 0.00 0.00 0.00 42 1018.8
20200706021807 78 53 5.0 11.0 0.00 0.00 0.00 41 1018.6
20200706021306 79 91 6.0 12.0 0.00 0.00 0.00 40 1018.6
20200706020807 79 62 6.0 12.0 0.00 0.00 0.00 40 1018.5
20200706020304 80 115 6.0 12.0 0.00 0.00 0.00 39 1018.5
20200706015802 80 56 6.0 13.0 0.00 0.00 0.00 38 1018.6
20200706015302 80 81 6.0 13.0 0.00 0.00 0.00 38 1018.6
20200706014802 81 110 5.0 13.0 0.00 0.00 0.00 38 1018.8
20200706014303 81 86 4.0 10.0 0.00 0.00 0.00 37 1018.8
20200706013800 81 58 2.0 8.0 0.00 0.00 0.00 37 1018.9
20200706013301 81 54 3.0 7.0 0.00 0.00 0.00 38 1018.8
20200706012800 80 96 4.0 9.0 0.00 0.00 0.00 40 1018.8
20200706012301 81 58 7.0 16.0 0.00 0.00 0.00 39 1018.8
20200706011758 81 34 9.0 16.0 0.00 0.00 0.00 39 1018.8
20200706011259 81 37 9.0 18.0 0.00 0.00 0.00 38 1018.5
20200706010756 80 45 9.0 18.0 0.00 0.00 0.00 39 1018.6
20200706010256 81 50 9.0 18.0 0.00 0.00 0.00 39 1018.9
20200706005756 80 47 10.0 18.0 0.00 0.00 0.00 39 1018.8
20200706005255 80 49 9.0 18.0 0.00 0.00 0.00 39 1018.9
20200706004754 80 96 10.0 25.0 0.00 0.00 0.00 40 1018.6
20200706004255 81 53 11.0 25.0 0.00 0.00 0.00 38 1019.1
20200706003754 83 46 12.0 24.0 0.00 0.00 0.00 35 1019.8
20200706003253 86 34 10.0 24.0 0.00 0.00 0.00 31 1020.5
20200706002752 86 336 7.0 16.0 0.00 0.00 0.00 29 1020.6
20200706002251 87 299 7.0 16.0 0.00 0.00 0.00 28 1020.7
20200706001750 87 308 8.0 14.0 0.00 0.00 0.00 28 1020.8
20200706001249 87 310 9.0 14.0 0.00 0.00 0.00 28 1020.7
20200706000749 87 298 8.0 14.0 0.00 0.00 0.00 27 1020.6
20200706000248 87 298 8.0 13.0 0.00 0.00 0.00 27 1020.6
20200705235747 87 306 7.0 13.0 0.00 0.00 0.00 27 1020.6
20200705235245 87 295 8.0 13.0 0.00 0.00 0.00 27 1020.5
20200705234744 87 296 8.0 13.0 0.00 0.00 0.00 27 1020.6
20200705234244 88 281 8.0 14.0 0.00 0.02 0.00 27 1020.7
20200705233744 88 298 9.0 14.0 0.00 0.05 0.00 26 1020.7
20200705233244 88 289 9.0 16.0 0.00 0.05 0.00 25 1020.8
20200705232742 89 293 9.0 16.0 0.00 0.05 0.00 25 1020.9
20200705232241 89 257 8.0 15.0 0.00 0.05 0.00 25 1021.1
20200705231742 90 292 8.0 12.0 0.00 0.05 0.00 26 1021.2
20200705231241 91 283 8.0 11.0 0.00 0.05 0.00 26 1021.2
20200705230742 91 257 8.0 14.0 0.00 0.05 0.00 26 1021.1
20200705230239 91 266 8.0 14.0 0.00 0.05 0.00 26 1021.3
20200705225738 91 259 8.0 14.0 0.00 0.05 0.00 25 1021.1
20200705225237 92 264 7.0 14.0 0.00 0.05 0.00 25 1021.3
20200705224738 93 212 6.0 13.0 0.00 0.05 0.00 26 1021.6
20200705224237 94 238 6.0 13.0 0.00 0.05 0.00 26 1021.7
20200705223737 93 250 7.0 13.0 0.00 0.05 0.00 24 1021.5
20200705223234 93 207 6.0 13.0 0.00 0.05 0.00 24 1021.6
20200705222733 93 120 5.0 13.0 0.00 0.05 0.00 23 1021.7
20200705222234 93 237 6.0 12.0 0.00 0.05 0.00 24 1021.6
20200705221736 93 231 7.0 12.0 0.00 0.05 0.00 24 1021.7
20200705221232 93 170 6.0 13.0 0.00 0.05 0.00 24 1021.7
20200705220729 93 157 6.0 13.0 0.00 0.05 0.00 23 1022.0
20200705220230 93 227 6.0 19.0 0.00 0.05 0.00 24 1022.0
20200705215731 93 162 5.0 19.0 0.00 0.05 0.00 25 1022.1
20200705215230 93 236 5.0 10.0 0.00 0.05 0.00 25 1021.9
20200705214731 92 203 5.0 10.0 0.00 0.05 0.00 25 1021.9
20200705214230 91 129 4.0 10.0 0.00 0.05 0.00 26 1021.7
20200705213730 92 107 4.0 10.0 0.00 0.05 0.00 26 1022.0
20200705213227 92 212 6.0 11.0 0.00 0.05 0.00 26 1022.2
20200705212727 92 140 6.0 11.0 0.00 0.05 0.00 26 1022.3
20200705212225 92 114 5.0 12.0 0.00 0.05 0.00 28 1022.3
20200705211723 91 205 4.0 12.0 0.00 0.05 0.00 27 1022.3
20200705211224 92 169 5.0 10.0 0.00 0.05 0.00 26 1022.8
20200705210723 91 190 5.0 11.0 0.00 0.05 0.00 28 1022.8
20200705210222 91 152 5.0 11.0 0.00 0.05 0.00 28 1022.7
20200705205721 91 211 5.0 10.0 0.00 0.05 0.00 28 1022.7
20200705205221 92 217 5.0 10.0 0.00 0.05 0.00 27 1022.9
20200705204720 91 221 5.0 12.0 0.00 0.05 0.00 28 1022.7
20200705204220 90 204 5.0 12.0 0.00 0.05 0.00 29 1022.7
20200705203721 90 203 6.0 14.0 0.00 0.05 0.00 29 1022.4
20200705203219 90 205 7.0 14.0 0.00 0.05 0.00 29 1022.4
20200705202719 90 186 6.0 11.0 0.00 0.05 0.00 29 1022.4
20200705202217 90 144 6.0 11.0 0.00 0.05 0.00 32 1022.5
20200705201715 90 131 5.0 9.0 0.00 0.05 0.00 31 1022.8
20200705201216 91 141 5.0 11.0 0.00 0.05 0.00 29 1022.8
20200705200716 91 181 5.0 11.0 0.00 0.05 0.00 30 1022.9
20200705200214 90 71 5.0 11.0 0.00 0.05 0.00 30 1022.8
20200705195713 90 170 5.0 11.0 0.00 0.05 0.00 32 1022.8
20200705195214 89 144 4.0 14.0 0.00 0.05 0.00 33 1022.7
20200705194712 89 136 5.0 14.0 0.00 0.05 0.00 32 1022.7
20200705194211 90 130 6.0 13.0 0.00 0.05 0.00 32 1022.8
20200705193713 90 140 6.0 14.0 0.00 0.05 0.00 32 1023.0
20200705193213 89 210 6.0 14.0 0.00 0.05 0.00 35 1022.8
20200705192712 88 104 6.0 13.0 0.00 0.05 0.00 34 1022.5
20200705192211 88 91 6.0 12.0 0.00 0.05 0.00 36 1022.4
20200705191711 88 129 7.0 12.0 0.00 0.05 0.00 35 1022.4
20200705191207 87 190 6.0 14.0 0.00 0.05 0.00 35 1022.3
20200705190708 87 200 6.0 14.0 0.00 0.05 0.00 36 1022.3
20200705190208 87 103 7.0 11.0 0.00 0.05 0.00 38 1022.5
20200705185707 87 171 7.0 14.0 0.00 0.05 0.00 37 1022.2
20200705185207 87 143 6.0 14.0 0.00 0.05 0.00 37 1022.5
20200705184708 86 91 6.0 11.0 0.00 0.05 0.00 37 1022.4
20200705184208 86 107 6.0 12.0 0.00 0.05 0.00 38 1022.4
20200705183708 86 133 6.0 12.0 0.00 0.05 0.00 38 1022.7
20200705183205 86 144 7.0 12.0 0.00 0.05 0.00 37 1022.5
20200705182707 87 148 8.0 12.0 0.00 0.05 0.00 35 1022.9
20200705182200 86 207 8.0 14.0 0.00 0.05 0.00 35 1022.5
20200705181700 86 192 8.0 14.0 0.00 0.05 0.00 35 1022.5
20200705181159 85 137 8.0 14.0 0.00 0.05 0.00 36 1022.4
20200705180658 85 161 8.0 16.0 0.00 0.05 0.00 38 1022.2
20200705180154 84 174 7.0 16.0 0.00 0.05 0.00 37 1022.1
20200705175654 84 110 6.0 13.0 0.00 0.05 0.00 40 1022.1
20200705175153 83 185 6.0 12.0 0.00 0.05 0.00 45 1022.0
20200705174651 83 192 5.0 12.0 0.00 0.05 0.00 45 1022.1
20200705174151 82 192 4.0 12.0 0.00 0.05 0.00 46 1021.9
20200705173648 82 147 4.0 12.0 0.00 0.05 0.00 47 1021.7
20200705173149 81 24 5.0 9.0 0.00 0.05 0.00 50 1021.5
20200705172645 80 124 5.0 9.0 0.00 0.05 0.00 51 1021.4
20200705172144 80 155 4.0 8.0 0.00 0.05 0.00 52 1021.4
20200705171642 80 119 4.0 8.0 0.00 0.05 0.00 53 1021.3
20200705171141 79 156 5.0 8.0 0.00 0.05 0.00 52 1021.3
20200705170641 79 129 4.0 8.0 0.00 0.05 0.00 52 1021.1
20200705170141 78 176 4.0 8.0 0.00 0.05 0.00 55 1020.8
20200705165639 78 122 4.0 8.0 0.00 0.05 0.00 52 1020.8
20200705165139 77 114 4.0 8.0 0.00 0.05 0.00 59 1020.8
20200705164639 77 109 4.0 8.0 0.00 0.05 0.00 61 1020.6
20200705164137 77 98 4.0 9.0 0.00 0.05 0.00 58 1020.7
20200705163635 77 113 4.0 9.0 0.00 0.05 0.00 58 1020.6
20200705163135 76 172 4.0 8.0 0.00 0.05 0.00 56 1020.4
20200705162635 76 177 5.0 9.0 0.00 0.05 0.00 60 1020.5
20200705162135 75 174 4.0 9.0 0.00 0.05 0.00 62 1020.2
20200705161636 74 131 4.0 7.0 0.00 0.05 0.00 63 1020.0
20200705161135 74 127 4.0 8.0 0.00 0.05 0.00 63 1020.0
20200705160634 74 115 3.0 8.0 0.00 0.05 0.00 65 1020.1
20200705160131 73 89 3.0 6.0 0.00 0.05 0.00 64 1019.9
20200705155629 74 149 3.0 6.0 0.00 0.05 0.00 63 1020.0
20200705155129 74 67 3.0 6.0 0.00 0.05 0.00 63 1020.2
20200705154630 73 184 3.0 6.0 0.00 0.05 0.00 65 1020.1
20200705154130 72 202 3.0 6.0 0.00 0.05 0.00 65 1019.9
20200705153630 72 79 2.0 6.0 0.00 0.05 0.00 66 1019.9
20200705153119 72 178 2.0 6.0 0.00 0.05 0.00 66 1019.9
20200705152619 71 215 1.0 4.0 0.00 0.05 0.00 68 1019.8
20200705152120 70 86 2.0 4.0 0.00 0.05 0.00 69 1019.6
20200705151607 70 120 3.0 6.0 0.00 0.05 0.00 69 1019.4
20200705151106 70 151 2.0 6.0 0.00 0.05 0.00 68 1019.4
20200705150605 70 210 1.0 5.0 0.00 0.05 0.00 69 1019.6
20200705150106 69 115 2.0 5.0 0.00 0.05 0.00 70 1019.4
20200705145603 69 76 1.0 4.0 0.00 0.05 0.00 69 1019.4
20200705145102 69 165 1.0 4.0 0.00 0.05 0.00 70 1019.6
20200705144555 69 131 1.0 4.0 0.00 0.05 0.00 72 1019.4
20200705144016 68 145 1.0 4.0 0.00 0.05 0.00 71 1019.3
20200705143454 68 105 1.0 4.0 0.00 0.05 0.00 72 1019.2
20200705142954 67 101 0.0 2.0 0.00 0.05 0.00 72 1019.1
20200705142455 67 55 0.0 0.0 0.00 0.05 0.00 73 1018.9
20200705141951 66 30 0.0 0.0 0.00 0.05 0.00 75 1018.8
20200705141454 65 105 0.0 0.0 0.00 0.05 0.00 75 1018.6
20200705140929 65 103 0.0 0.0 0.00 0.05 0.00 77 1018.5
20200705140431 64 59 0.0 0.0 0.00 0.05 0.00 77 1018.4
20200705135928 64 72 0.0 0.0 0.00 0.05 0.00 78 1018.2
20200705135422 64 80 0.0 0.0 0.00 0.05 0.00 78 1018.1
20200705134912 64 74 0.0 0.0 0.00 0.05 0.00 78 1018.0
20200705134404 63 108 0.0 0.0 0.00 0.05 0.00 78 1018.1
20200705133851 64 106 0.0 0.0 0.00 0.05 0.00 76 1018.2
20200705133348 64 23 0.0 0.0 0.00 0.05 0.00 77 1018.2
20200705132818 64 23 0.0 0.0 0.00 0.05 0.00 77 1017.8
20200705132316 63 13 0.0 2.0 0.00 0.05 0.00 79 1017.5